Waarnemingen

Advertentie
Mijn weer
St-Auban-Sur-Durance, Frankrijk (7588): temperatuur & dauwpunt: 15.01.2017 18:00:00 - 21.01.2017 18:00:00 (CET)St-Auban-Sur-Durance, Frankrijk (7588): temperatuur 5cm: 15.01.2017 18:00:00 - 21.01.2017 18:00:00 (CET)St-Auban-Sur-Durance, Frankrijk (7588): temperatuur -20cm: 15.01.2017 18:00:00 - 21.01.2017 18:00:00 (CET)St-Auban-Sur-Durance, Frankrijk (7588): windsnelheid & windstoten: 15.01.2017 18:00:00 - 21.01.2017 18:00:00 (CET)St-Auban-Sur-Durance, Frankrijk (7588): windrichting: 15.01.2017 18:00:00 - 21.01.2017 18:00:00 (CET)St-Auban-Sur-Durance, Frankrijk (7588): luchtdruk: 15.01.2017 18:00:00 - 21.01.2017 18:00:00 (CET)St-Auban-Sur-Durance, Frankrijk (7588): zicht: 15.01.2017 18:00:00 - 21.01.2017 18:00:00 (CET)St-Auban-Sur-Durance, Frankrijk (7588): Zonneschijnduur: 15.01.2017 18:00:00 - 21.01.2017 18:00:00 (CET)St-Auban-Sur-Durance, Frankrijk (7588): neerslag: 15.01.2017 18:00:00 - 21.01.2017 18:00:00 (CET)
Datum & Tijd tt [°C] td [°C] tt 5cm [°C] tt -20cm [°C] ff [km/u] ff [kn] fx [km/u] fx [kn] dd ppp [hPa] vv [km] sd [min] rr [mm]
21.01.2017 18:00:00 7,0 -7,8 2,9 1,6 10 6 21 11 W 1020,5 20 0 0,0
21.01.2017 17:00:00 11,3 -9,7 7,3 1,5 6 3 18 10 NO 1019,1 20 31 0,0
21.01.2017 16:00:00 13,1 -9,4 15,9 1,4 10 6 24 13 NNO 1018,8 20 60 0,0
21.01.2017 15:00:00 12,7 -8,5 14,6 1,3 14 8 27 15 N 1019,0 20 58 0,0
21.01.2017 14:00:00 12,2 -7,8 13,4 1,3 14 8 27 14 NNO 1020,1 20 58 0,0
21.01.2017 13:00:00 11,0 -7,3 12,9 1,2 12 7 26 14 NO 1021,5 20 60 0,0
21.01.2017 12:00:00 9,3 -7,0 12,0 1,3 15 8 31 17 NO 1022,9 20 60 0,0
21.01.2017 11:00:00 7,8 -7,1 6,8 1,3 13 7 29 16 NO 1024,0 20 60 0,0
21.01.2017 10:00:00 4,2 -6,1 3,6 1,3 5 3 13 7 O 1024,9 20 60 0,0
21.01.2017 09:00:00 0,9 -6,0 -4,4 1,3 5 3 11 6 ZO 1025,8 20 32 0,0
21.01.2017 08:00:00 -1,9 -6,6 -4,4 1,3 4 2 13 7 OZO 1026,4 20 0 0,0
21.01.2017 07:00:00 -1,4 -5,8 -3,9 1,3 5 3 14 8 O 1026,3 20 0 0,0
21.01.2017 06:00:00 -1,7 -5,9 -3,8 1,3 6 3 16 8 O 1026,4 20 0 0,0
21.01.2017 05:00:00 -1,4 -5,8 -3,4 1,3 2 1 12 7 ZO 1026,6 20 0 0,0
21.01.2017 04:00:00 -1,1 -5,3 -3,2 1,3 4 2 11 6 O 1026,9 20 0 0,0
21.01.2017 03:00:00 0,1 -4,9 -2,4 1,3 4 2 9 5 O 1027,2 20 0 0,0
21.01.2017 02:00:00 1,0 -4,6 -1,0 1,3 7 4 11 6 NO 1027,3 20 0 0,0
21.01.2017 01:00:00 0,4 -4,6 -0,7 1,2 4 2 12 7 ONO 1027,9 20 0 0,0
21.01.2017 00:00:00 0,1 -4,5 -0,7 1,3 8 4 14 7 NO 1028,0 20 0 0,0
20.01.2017 23:00:00 -0,4 -4,7 -1,0 1,2 8 4 13 7 NO 1028,4 20 0 0,0
20.01.2017 22:00:00 0,2 -4,4 -0,4 1,2 5 3 10 6 ONO 1028,3 17 0 0,0
20.01.2017 21:00:00 0,5 -4,7 -1,4 1,2 4 2 16 9 NO 1028,4 20 0 0,0
20.01.2017 20:00:00 0,7 -5,1 -2,0 1,2 6 3 13 7 O 1028,1 20 0 0,0
20.01.2017 19:00:00 1,3 -5,2 -1,8 1,2 5 3 10 5 ZO 1027,6 20 0 0,0
20.01.2017 18:00:00 3,8 -4,7 1,0 1,2 0 0 18 10 N 1026,7 20 0 0,0
20.01.2017 17:00:00 5,9 -4,6 5,1 1,2 13 7 21 11 WZW 1026,1 20 7 0,0
20.01.2017 16:00:00 8,8 -4,8 6,5 1,2 5 3 18 10 ZZW 1025,3 20 27 0,0
20.01.2017 15:00:00 9,9 -6,1 11,3 1,2 4 2 15 8 WZW 1025,3 20 60 0,0
20.01.2017 14:00:00 8,3 -5,9 11,0 1,2 7 4 13 7 ZZW 1026,0 20 60 0,0
20.01.2017 13:00:00 6,2 -6,1 9,6 1,2 5 3 13 7 NNO 1027,3 20 60 0,0
20.01.2017 12:00:00 4,2 -5,6 7,5 1,2 6 3 13 7 O 1028,6 20 60 0,0
20.01.2017 11:00:00 1,6 -5,3 3,5 1,2 7 4 13 7 ONO 1029,8 20 60 0,0
20.01.2017 10:00:00 -1,6 -6,0 -0,2 1,2 8 5 14 8 ONO 1030,4 20 60 0,0
20.01.2017 09:00:00 -3,9 -6,4 -7,1 1,2 9 5 14 8 NNO 1030,6 20 31 0,0
20.01.2017 08:00:00 -5,8 -7,8 -7,2 1,3 8 5 12 6 NNO 1030,6 20 0 0,0
20.01.2017 07:00:00 -5,6 -7,4 -6,4 1,3 6 4 13 7 NO 1030,4 20 0 0,0
20.01.2017 06:00:00 -5,1 -7,2 -6,5 1,3 8 5 16 9 NNO 1030,1 20 0 0,0
20.01.2017 05:00:00 -5,4 -7,7 -6,7 1,3 9 5 15 8 NO 1030,2 20 0 0,0
20.01.2017 04:00:00 -5,1 -7,4 -6,7 1,3 10 6 15 8 NNO 1030,3 20 0 0,0
20.01.2017 03:00:00 -4,8 -7,2 -6,2 1,3 11 6 15 8 NNO 1030,2 20 0 0,0
20.01.2017 02:00:00 -4,3 -6,6 -5,3 1,3 7 4 14 8 NO 1029,9 20 0 0,0
20.01.2017 01:00:00 -3,8 -6,9 -5,2 1,3 10 5 16 9 NO 1029,9 20 0 0,0
20.01.2017 00:00:00 -3,0 -6,0 -4,7 1,3 9 5 21 12 NNO 1029,8 19 0 0,0
19.01.2017 23:00:00 -0,7 -5,9 -4,5 1,2 8 5 19 11 ONO 1029,1 20 0 0,0
19.01.2017 22:00:00 -2,2 -6,0 -4,1 1,2 4 2 10 6 NO 1029,2 17 0 0,0
19.01.2017 21:00:00 -1,5 -6,3 -3,7 1,2 4 2 18 10 ONO 1028,6 20 0 0,0
19.01.2017 20:00:00 -0,2 -5,8 -2,4 1,2 6 4 16 9 OZO 1027,7 20 0 0,0
19.01.2017 19:00:00 2,1 -4,6 -0,5 1,2 5 3 11 6 WZW 1026,6 20 0 0,0
19.01.2017 18:00:00 3,9 -5,1 1,2 1,2 11 6 19 10 ZW 1025,5 20 4 0,0
19.01.2017 17:00:00 7,2 -4,9 6,8 1,2 13 7 22 12 ZW 1024,4 20 60 0,0
19.01.2017 16:00:00 8,5 -5,4 11,0 1,2 15 8 23 13 ZZW 1024,0 20 58 0,0
19.01.2017 15:00:00 9,2 -9,3 9,6 1,2 13 7 18 10 ZW 1023,9 20 60 0,0
19.01.2017 14:00:00 8,2 -9,3 9,6 1,2 0 0 8 5 N 1024,2 20 51 0,0
19.01.2017 13:00:00 5,5 -7,7 9,1 1,2 6 3 13 7 ONO 1025,3 20 57 0,0
19.01.2017 12:00:00 2,9 -7,6 3,4 1,2 6 4 13 7 NO 1026,5 20 57 0,0
19.01.2017 11:00:00 0,2 -7,3 2,2 1,3 7 4 14 8 NNO 1027,4 20 52 0,0
19.01.2017 10:00:00 -2,7 -8,0 -2,4 1,3 7 4 13 7 NO 1027,8 20 60 0,0
19.01.2017 09:00:00 -5,7 -8,6 -7,3 1,3 10 5 17 9 NNO 1028,1 20 4 0,0
19.01.2017 08:00:00 -6,3 -8,9 -7,8 1,3 8 4 13 7 NNO 1027,7 20 0 0,0
19.01.2017 07:00:00 -6,0 -9,4 -7,2 1,3 7 4 19 10 ONO 1027,1 20 0 0,0
19.01.2017 06:00:00 -5,9 -9,3 -7,1 1,3 10 5 17 9 NO 1026,4 20 0 0,0
19.01.2017 05:00:00 -6,0 -9,2 -7,6 1,3 8 5 14 8 NO 1026,2 20 0 0,0
19.01.2017 04:00:00 -5,4 -8,8 -7,1 1,4 8 4 13 7 NO 1026,0 20 0 0,0
19.01.2017 03:00:00 -5,8 -9,2 -7,7 1,4 9 5 12 7 NO 1026,2 19 0 0,0
19.01.2017 02:00:00 -4,9 -9,0 -7,4 1,4 5 3 8 4 NO 1025,6 20 0 0,0
19.01.2017 01:00:00 -5,3 -9,0 -7,3 1,4 6 3 9 5 O 1025,2 16 0 0,0
19.01.2017 00:00:00 -4,8 -9,4 -6,6 1,4 5 3 9 5 OZO 1024,9 20 0 0,0
18.01.2017 23:00:00 -4,1 -9,1 -6,1 1,4 6 3 13 7 OZO 1024,5 20 0 0,0
18.01.2017 22:00:00 -3,7 -9,1 -5,5 1,4 7 4 14 8 ZO 1024,0 20 0 0,0
18.01.2017 21:00:00 -3,1 -8,6 -5,1 1,4 4 2 11 6 OZO 1023,8 19 0 0,0
18.01.2017 20:00:00 -1,4 -8,0 -3,7 1,4 4 2 14 7 W 1022,6 20 0 0,0
18.01.2017 19:00:00 0,2 -8,3 -2,5 1,3 6 4 17 9 ZW 1021,5 20 0 0,0
18.01.2017 18:00:00 3,0 -8,1 1,8 1,4 13 7 20 11 W 1020,4 20 1 0,0
18.01.2017 17:00:00 7,4 -10,0 6,2 1,3 8 5 18 10 NNO 1018,8 20 51 0,0
18.01.2017 16:00:00 8,4 -10,0 9,4 1,3 10 5 23 13 NNO 1018,4 20 37 0,0
18.01.2017 15:00:00 8,6 -10,4 7,5 1,3 13 7 29 16 NNO 1018,2 20 57 0,0
18.01.2017 14:00:00 6,8 -10,5 7,4 1,4 16 8 33 18 NNO 1018,6 20 37 0,0
18.01.2017 13:00:00 5,8 -10,1 7,6 1,4 19 11 33 18 NNO 1019,4 20 60 0,0
18.01.2017 12:00:00 3,9 -9,8 4,9 1,3 17 9 31 17 NNO 1020,5 20 52 0,0
18.01.2017 11:00:00 1,7 -10,5 0,1 1,4 10 5 27 15 ONO 1021,5 20 37 0,0
18.01.2017 10:00:00 -2,0 -10,8 -2,0 1,4 6 3 30 16 O 1021,8 20 2 0,0
18.01.2017 09:00:00 -1,5 -10,8 -2,2 1,4 6 3 27 15 O 1020,9 20 1 0,0
18.01.2017 08:00:00 -1,9 -11,2 -2,8 1,4 16 9 35 19 NNO 1020,2 20 0 0,0
18.01.2017 07:00:00 -2,2 -11,2 -2,8 1,5 18 10 41 22 NNO 1019,9 20 0 0,0
18.01.2017 06:00:00 -2,0 -11,1 -2,6 1,4 17 9 41 22 NNO 1019,3 20 0 0,0
18.01.2017 05:00:00 -1,9 -11,0 -2,7 1,5 16 9 40 22 NO 1019,6 20 0 0,0
18.01.2017 04:00:00 -2,0 -11,1 -2,6 1,5 21 12 40 22 NNO 1019,3 20 0 0,0
18.01.2017 03:00:00 -1,9 -11,0 -2,4 1,5 22 12 39 21 NO 1019,3 20 0 0,0
18.01.2017 02:00:00 -2,0 -11,1 -2,7 1,5 16 9 42 23 NO 1019,4 20 0 0,0
18.01.2017 01:00:00 -1,9 -11,0 -2,4 1,5 21 11 39 21 NO 1019,2 20 0 0,0
18.01.2017 00:00:00 -1,6 -10,9 -2,3 1,5 19 11 40 22 NNO 1019,1 20 0 0,0
17.01.2017 23:00:00 -1,5 -10,8 -2,6 1,5 20 11 37 20 NNO 1019,0 20 0 0,0
17.01.2017 22:00:00 -1,4 -11,0 -2,0 1,5 18 10 42 23 NO 1018,7 20 0 0,0
17.01.2017 21:00:00 -1,1 -11,3 -1,6 1,5 16 8 42 23 NO 1018,4 20 0 0,0
17.01.2017 20:00:00 -0,5 -11,6 -0,8 1,5 20 11 43 23 NNO 1017,6 20 0 0,0
17.01.2017 19:00:00 0,6 -11,8 -0,1 1,5 18 10 34 18 NNO 1016,3 20 0 0,0
17.01.2017 18:00:00 1,5 -12,0 0,9 1,5 20 11 37 20 NNO 1015,5 20 0 0,0
17.01.2017 17:00:00 2,5 -12,6 2,3 1,5 21 11 36 20 NNO 1014,7 20 50 0,0
17.01.2017 16:00:00 3,8 -12,6 6,2 1,5 21 11 41 22 N 1014,0 20 60 0,0
17.01.2017 15:00:00 3,9 -13,0 5,9 1,5 24 13 44 24 N 1014,0 20 60 0,0
17.01.2017 14:00:00 3,6 -12,8 5,2 1,5 24 13 46 25 N 1014,2 20 60 0,0
17.01.2017 13:00:00 3,0 -12,9 4,9 1,5 22 12 47 25 N 1014,6 20 60 0,0
17.01.2017 12:00:00 1,1 -12,7 3,1 1,5 20 11 47 26 NNO 1015,3 20 60 0,0
17.01.2017 11:00:00 -0,4 -12,4 1,1 1,5 20 11 47 25 NNO 1015,9 20 60 0,0
17.01.2017 10:00:00 -2,0 -12,4 -1,2 1,6 22 12 44 24 NNO 1016,1 20 60 0,0
17.01.2017 09:00:00 -3,0 -12,5 -3,7 1,6 20 11 44 24 NNO 1015,9 20 29 0,0
17.01.2017 08:00:00 -3,1 -12,8 -3,7 1,6 20 11 48 26 NNO 1015,4 20 0 0,0
17.01.2017 07:00:00 -3,1 -13,1 -3,8 1,6 19 10 42 23 NNO 1015,1 20 0 0,0
17.01.2017 06:00:00 -3,1 -12,6 -3,6 1,7 21 11 41 22 NNO 1014,5 20 0 0,0
17.01.2017 05:00:00 -2,8 -12,6 -3,6 1,7 21 11 40 22 NNO 1014,5 20 0 0,0
17.01.2017 04:00:00 -2,8 -12,6 -3,4 1,7 19 11 49 27 NNO 1014,7 20 0 0,0
17.01.2017 03:00:00 -2,7 -12,5 -3,4 1,7 16 8 38 20 NNO 1015,0 20 0 0,0
17.01.2017 02:00:00 -2,5 -12,3 -3,1 1,7 19 10 35 19 NNO 1014,9 20 0 0,0
17.01.2017 01:00:00 -2,0 -12,4 -2,7 1,8 16 8 37 20 NNO 1015,0 20 0 0,0
17.01.2017 00:00:00 -1,7 -11,8 -2,5 1,7 17 9 34 18 N 1015,0 20 0 0,0
16.01.2017 23:00:00 -1,9 -11,5 -2,5 1,8 22 12 45 25 N 1015,3 20 0 0,0
16.01.2017 22:00:00 -0,9 -11,9 -1,7 1,8 19 10 41 22 N 1015,0 20 0 0,0
16.01.2017 21:00:00 -0,9 -11,6 -1,7 1,8 17 9 37 20 N 1015,3 20 0 0,0
16.01.2017 20:00:00 -0,6 -11,4 -1,4 1,8 21 11 40 21 N 1014,8 20 0 0,0
16.01.2017 19:00:00 -0,4 -11,5 -1,0 1,8 21 11 45 24 N 1014,3 20 0 0,0
16.01.2017 18:00:00 0,0 -12,0 -0,5 1,8 22 12 49 26 N 1013,7 20 0 0,0
16.01.2017 17:00:00 0,8 -11,9 0,6 1,8 29 16 51 28 N 1013,0 20 49 0,0
16.01.2017 16:00:00 2,3 -12,0 4,9 1,8 30 16 54 29 N 1012,5 20 60 0,0
16.01.2017 15:00:00 3,7 -13,2 6,3 1,8 30 16 45 25 N 1012,2 20 60 0,0
16.01.2017 14:00:00 4,3 -14,0 5,6 1,8 23 13 43 23 N 1012,6 20 60 0,0
16.01.2017 13:00:00 3,8 -12,6 6,6 1,8 17 9 31 17 N 1013,7 20 60 0,0
16.01.2017 12:00:00 1,9 -11,3 4,9 1,8 19 10 33 18 NNO 1015,0 20 60 0,0
16.01.2017 11:00:00 0,1 -11,3 1,9 1,8 15 8 37 20 NO 1016,1 20 60 0,0
16.01.2017 10:00:00 -2,0 -11,3 -1,1 1,9 18 10 35 19 NO 1016,5 20 60 0,0
16.01.2017 09:00:00 -3,9 -10,5 -4,5 1,9 10 5 23 13 O 1016,5 20 28 0,0
16.01.2017 08:00:00 -4,2 -10,6 -6,5 2,0 6 3 25 13 ONO 1016,5 20 0 0,0
16.01.2017 07:00:00 -5,0 -11,2 -6,4 2,0 6 3 26 14 ZO 1016,9 20 0 0,0
16.01.2017 06:00:00 -3,5 -10,2 -4,3 2,0 9 5 28 15 O 1016,7 20 0 0,0
16.01.2017 05:00:00 -3,4 -9,6 -4,1 2,1 9 5 23 12 OZO 1017,3 20 0 0,0
16.01.2017 04:00:00 -2,5 -9,6 -3,6 2,1 7 4 40 21 O 1017,3 20 0 0,0
16.01.2017 03:00:00 -1,9 -9,5 -2,4 2,1 16 9 43 23 NNO 1017,6 20 0 0,0
16.01.2017 02:00:00 -1,6 -9,5 -2,3 2,1 18 10 45 25 NNO 1017,8 20 0 0,0
16.01.2017 01:00:00 -1,5 -9,2 -2,0 2,2 22 12 43 23 N 1018,2 20 0 0,0
16.01.2017 00:00:00 -0,4 -9,6 -1,4 2,2 22 12 45 25 NNO 1018,3 20 0 0,0
15.01.2017 23:00:00 -0,7 -9,1 -1,4 2,2 22 12 41 22 NNO 1018,6 20 0 0,0
15.01.2017 22:00:00 -0,3 -9,2 -0,9 2,2 23 12 44 24 N 1018,8 20 0 0,0
15.01.2017 21:00:00 0,4 -9,6 -0,4 2,3 20 11 38 20 NNO 1019,0 20 0 0,0
15.01.2017 20:00:00 0,5 -9,5 -0,1 2,3 17 9 41 22 NNO 1019,1 20 0 0,0
15.01.2017 19:00:00 1,0 -10,2 0,4 2,3 24 13 58 32 N 1018,8 20 0 0,0
15.01.2017 18:00:00 1,4 -10,4 0,8 2,3 35 19 59 32 N 1017,8 20 0 0,0

tt = temperatuur
td = dauwpunt
tt 5cm = temperatuur 5cm
tt -20cm = temperatuur -20cm
ff = windsnelheid
fx = windstoten
dd = windrichting
ppp = luchtdruk
vv = zicht
sd = Zonneschijnduur
rr = neerslag

Weerstations in de omgeving